User: anonymous   Login
Location: Unspecified
(0.0000°N, 0.0000°E)
Time: 03:21:36
(UTC+00:00)
Language:

STARLINK-2459 - Orbit

View from above orbital plane
View from above orbital plane
View from above satellite
View from above satellite

Ground track
Ground track

The orbit is defined by the following mean orbital elements,

1 48119U          26145.44705647 +.00000000 +00000-0 +22962-5 0 00007
2 48119  53.1578 155.4127 0001202  84.2557 275.8582 15.31704034    00
Epoch (UTC): 25 May 2026 10:43:45
Eccentricity: 0.0001202
inclination: 53.1578°
perigee height: 470 km
apogee height: 472 km
right ascension of ascending node: 155.4127°
argument of perigee: 84.2557°
revolutions per day: 15.31704034
mean anomaly at epoch: 275.8582°

The dashed part of the orbit path shows where the satellite is in the earth's shadow,  

DLR